GW6849 Weather Reports


time (UTC)temp
C
wind
direction
speed
KPH
gust
KPH
rain 1hr
cm
rain 24hr
cm
rain mn
cm
humidity
%
barometer
mb
20260503181345 25 336 3.2 4.8 0.00 0.00 0.00 47 1011.9
20260503180842 25 310 1.6 3.2 0.00 0.00 0.00 46 1011.8
20260503180340 23 320 6.4 9.7 0.00 0.00 0.00 47 1011.8
20260503175836 23 322 6.4 9.7 0.00 0.00 0.00 47 1011.8
20260503175334 23 351 6.4 6.4 0.00 0.00 0.00 48 1011.9
20260503174834 23 274 6.4 11.3 0.00 0.00 0.00 48 1011.9
20260503174333 23 333 8.0 11.3 0.00 0.00 0.00 49 1011.8
20260503173828 23 19 1.6 3.2 0.00 0.00 0.00 49 1011.9
20260503173325 23 319 3.2 4.8 0.00 0.00 0.00 49 1011.7
20260503172821 23 316 3.2 4.8 0.00 0.00 0.00 48 1011.7
20260503172319 23 318 3.2 6.4 0.00 0.00 0.00 48 1011.9
20260503171815 23 359 6.4 11.3 0.00 0.00 0.00 50 1011.9
20260503171312 22 296 8.0 12.9 0.00 0.00 0.00 52 1011.8
20260503170809 23 343 6.4 11.3 0.00 0.00 0.00 52 1012.0
20260503170306 23 25 6.4 11.3 0.00 0.00 0.00 52 1011.7
20260503150658 17 141 0.0 0.0 0.00 0.00 0.00 84 1012.3
20260503150154 17 141 0.0 0.0 0.00 0.00 0.00 80 1012.1
20260503140118 12 141 0.0 0.0 0.00 0.00 0.00 93 1012.3
20260503131048 11 142 0.0 0.0 0.00 0.00 0.00 96 1011.9
20260503130545 11 142 0.0 0.0 0.00 0.00 0.00 96 1012.0
20260503110435 12 142 0.0 0.0 0.00 0.00 0.00 94 1012.1
20260503090326 11 142 0.0 0.0 0.00 0.00 0.00 95 1012.4
20260503081254 12 142 0.0 0.0 0.00 0.00 0.00 94 1012.6
20260503080749 12 142 0.0 0.0 0.00 0.00 0.00 94 1012.6
20260503080247 12 142 0.0 0.0 0.00 0.00 0.00 93 1012.5
20260503072724 12 142 0.0 0.0 0.00 0.00 0.00 92 1013.2
20260503072220 12 142 0.0 0.0 0.00 0.00 0.00 90 1013.0
20260503071717 13 142 0.0 0.0 0.00 0.00 0.00 91 1012.9
20260503071214 12 142 0.0 0.0 0.00 0.00 0.00 90 1013.1
20260503070711 12 142 0.0 0.0 0.00 0.00 0.00 91 1013.1
20260503070209 12 142 0.0 0.0 0.00 0.00 0.00 89 1013.1
20260503060133 14 142 0.0 0.0 0.00 0.00 0.00 86 1013.0
20260503055125 14 142 0.0 0.0 0.00 0.00 0.00 86 1013.0
20260503054620 14 142 0.0 0.0 0.00 0.00 0.00 86 1013.1
20260503054117 14 142 0.0 0.0 0.00 0.00 0.00 86 1013.0
20260503053615 14 142 0.0 0.0 0.00 0.00 0.00 85 1013.0
20260503053114 15 142 0.0 0.0 0.00 0.00 0.00 85 1013.1
20260503052610 15 142 0.0 0.0 0.00 0.00 0.00 84 1013.0
20260503052106 15 142 0.0 0.0 0.00 0.00 0.00 84 1013.1
20260503051601 15 142 0.0 0.0 0.00 0.00 0.00 84 1012.9
20260503051100 15 142 0.0 0.0 0.00 0.00 0.00 83 1012.9
20260503050555 15 142 0.0 0.0 0.00 0.00 0.00 83 1012.8
20260503050053 15 141 0.0 0.0 0.00 0.00 0.00 82 1012.9
20260503045550 15 142 0.0 0.0 0.00 0.00 0.00 83 1013.0
20260503045047 15 141 0.0 0.0 0.00 0.00 0.00 83 1012.8
20260503044544 15 142 0.0 0.0 0.00 0.00 0.00 83 1013.1
20260503044041 15 142 0.0 0.0 0.00 0.00 0.00 83 1013.0
20260503043537 15 142 0.0 0.0 0.00 0.00 0.00 82 1013.0
20260503043034 15 142 0.0 0.0 0.00 0.00 0.00 82 1012.8
20260503042531 15 141 0.0 0.0 0.00 0.00 0.00 82 1012.8
20260503042027 15 141 0.0 0.0 0.00 0.00 0.00 82 1012.8
20260503041524 15 142 0.0 0.0 0.00 0.00 0.00 82 1012.8
20260503041022 15 141 0.0 0.0 0.00 0.00 0.00 81 1012.6
20260503040519 15 142 0.0 0.0 0.00 0.00 0.00 81 1012.5
20260503040016 15 142 0.0 0.0 0.00 0.00 0.00 82 1012.6
20260503035513 15 142 0.0 0.0 0.00 0.00 0.00 82 1012.6
20260503035011 15 142 0.0 0.0 0.00 0.00 0.00 82 1012.4
20260503034508 15 142 0.0 0.0 0.00 0.00 0.00 82 1012.4
20260503034004 15 142 0.0 0.0 0.00 0.00 0.00 81 1012.1
20260503033501 15 142 0.0 0.0 0.00 0.00 0.00 81 1012.1
20260503033000 15 142 0.0 0.0 0.00 0.00 0.00 81 1011.9
20260503032458 16 142 0.0 0.0 0.00 0.00 0.00 80 1011.8
20260503031955 16 142 0.0 0.0 0.00 0.00 0.00 81 1011.8
20260503031453 16 142 0.0 0.0 0.00 0.00 0.00 80 1011.8
20260503030949 16 142 0.0 0.0 0.00 0.00 0.00 80 1011.7
20260503030446 16 142 0.0 1.6 0.00 0.00 0.00 80 1011.8
20260503025943 16 136 0.0 0.0 0.00 0.00 0.00 80 1011.5
20260503025440 16 138 1.6 1.6 0.00 0.00 0.00 79 1011.9
20260503024938 16 107 0.0 0.0 0.00 0.00 0.00 75 1012.0
20260503024434 16 108 0.0 0.0 0.00 0.00 0.00 77 1012.1
20260503023931 16 111 0.0 0.0 0.00 0.00 0.00 78 1012.2
20260503023428 17 112 0.0 1.6 0.00 0.00 0.00 77 1012.4
20260503022925 17 22 0.0 0.0 0.00 0.00 0.00 76 1012.6
20260503022420 17 18 0.0 0.0 0.00 0.00 0.00 77 1012.5
20260503021916 17 22 0.0 0.0 0.00 0.00 0.00 75 1012.6
20260503021412 17 14 1.6 1.6 0.00 0.00 0.00 72 1012.9
20260503020909 18 316 4.8 4.8 0.00 0.00 0.00 70 1013.3
20260503020407 18 312 3.2 3.2 0.00 0.00 0.00 68 1013.2
20260503015903 18 282 3.2 3.2 0.00 0.00 0.00 68 1013.4
20260503015401 18 304 3.2 3.2 0.00 0.00 0.00 67 1013.1
20260503014856 18 303 0.0 0.0 0.00 0.00 0.00 66 1013.1
20260503014354 19 249 6.4 9.7 0.00 0.00 0.00 64 1013.0
20260503013852 20 299 0.0 1.6 0.00 0.00 0.00 62 1012.7
20260503013348 19 298 0.0 0.0 0.00 0.00 0.00 62 1012.6
20260503012845 20 317 6.4 6.4 0.00 0.00 0.00 62 1012.6
20260503012343 20 332 0.0 0.0 0.00 0.00 0.00 62 1012.5
20260503011840 20 310 3.2 4.8 0.00 0.00 0.00 63 1012.5
20260503011337 20 354 1.6 3.2 0.00 0.00 0.00 60 1012.4
20260503010833 20 326 3.2 3.2 0.00 0.00 0.00 59 1012.4
20260503010330 20 323 0.0 1.6 0.00 0.00 0.00 61 1012.3
20260503005827 20 304 1.6 3.2 0.00 0.00 0.00 61 1012.5
20260503005325 20 343 3.2 6.4 0.00 0.00 0.00 62 1012.6
20260503004820 21 314 8.0 12.9 0.00 0.00 0.00 58 1012.3
20260503004318 21 334 1.6 1.6 0.00 0.00 0.00 56 1012.3
20260503003816 21 19 3.2 3.2 0.00 0.00 0.00 56 1012.3
20260503003312 21 332 4.8 6.4 0.00 0.00 0.00 54 1012.3
20260503002809 21 327 6.4 6.4 0.00 0.00 0.00 55 1012.1
20260503002306 21 328 1.6 3.2 0.00 0.00 0.00 54 1012.2
20260503001803 22 317 4.8 6.4 0.00 0.00 0.00 51 1012.1
20260503001259 21 330 6.4 9.7 0.00 0.00 0.00 53 1012.1
20260503000757 21 305 8.0 12.9 0.00 0.00 0.00 54 1012.1
20260503000253 22 357 6.4 11.3 0.00 0.00 0.00 54 1012.2
20260502235751 21 331 3.2 4.8 0.00 0.00 0.00 57 1012.1
20260502235249 21 4 6.4 6.4 0.00 0.00 0.00 60 1012.3
20260502234744 21 17 4.8 6.4 0.00 0.00 0.00 57 1012.3
20260502234242 21 332 3.2 4.8 0.00 0.00 0.00 59 1012.1
20260502233738 20 321 1.6 3.2 0.00 0.00 0.00 59 1012.1
20260502233235 21 348 4.8 6.4 0.00 0.00 0.00 57 1012.5
20260502232730 22 350 1.6 3.2 0.00 0.00 0.00 51 1012.3
20260502232228 21 350 0.0 0.0 0.00 0.00 0.00 52 1012.5
20260502231724 21 349 3.2 4.8 0.00 0.00 0.00 55 1012.6
20260502231222 21 302 3.2 3.2 0.00 0.00 0.00 57 1012.7
20260502230721 21 304 6.4 6.4 0.00 0.00 0.00 57 1012.7
20260502230219 21 358 3.2 4.8 0.00 0.00 0.00 55 1012.9
20260502225714 21 318 6.4 9.7 0.00 0.00 0.00 56 1013.0
20260502225212 21 234 3.2 4.8 0.00 0.00 0.00 55 1012.9
20260502224708 21 349 0.0 3.2 0.00 0.00 0.00 54 1012.9
20260502224205 21 9 4.8 4.8 0.00 0.00 0.00 57 1013.0
20260502223702 21 309 3.2 4.8 0.00 0.00 0.00 59 1013.3
20260502223200 21 22 1.6 1.6 0.00 0.00 0.00 58 1013.4
20260502222658 20 339 3.2 6.4 0.00 0.00 0.00 58 1013.7
20260502222154 21 286 1.6 4.8 0.00 0.00 0.00 56 1013.7
20260502221649 20 310 6.4 6.4 0.00 0.00 0.00 57 1013.5
20260502221147 20 321 3.2 3.2 0.00 0.00 0.00 57 1013.8
20260502220643 19 11 1.6 3.2 0.00 0.00 0.00 57 1013.7
20260502220139 20 353 1.6 1.6 0.00 0.00 0.00 61 1013.6
20260502215637 20 307 3.2 4.8 0.00 0.00 0.00 61 1013.7
20260502215133 18 277 4.8 9.7 0.00 0.00 0.00 63 1013.8
20260502214631 19 309 11.3 12.9 0.00 0.00 0.00 62 1013.9
20260502214128 18 313 3.2 4.8 0.00 0.00 0.00 63 1014.0
20260502213625 19 289 1.6 3.2 0.00 0.00 0.00 61 1014.1
20260502213122 18 275 6.4 11.3 0.00 0.00 0.00 62 1014.0
20260502212621 18 313 8.0 11.3 0.00 0.00 0.00 62 1014.0
20260502212119 18 318 4.8 6.4 0.00 0.00 0.00 62 1014.2
20260502211614 18 351 6.4 9.7 0.00 0.00 0.00 63 1014.1
20260502211111 18 345 4.8 6.4 0.00 0.00 0.00 62 1014.1
20260502210609 17 215 0.0 1.6 0.00 0.00 0.00 61 1014.5
20260502210106 18 341 3.2 4.8 0.00 0.00 0.00 62 1014.5
20260502205602 18 318 3.2 4.8 0.00 0.00 0.00 63 1014.5
20260502205100 17 15 1.6 3.2 0.00 0.00 0.00 65 1014.6
20260502204556 17 342 0.0 1.6 0.00 0.00 0.00 64 1014.8
20260502204054 17 8 3.2 6.4 0.00 0.00 0.00 64 1014.7
20260502203550 17 344 3.2 3.2 0.00 0.00 0.00 64 1014.7
20260502203048 16 300 3.2 4.8 0.00 0.00 0.00 65 1014.7
20260502202543 17 332 6.4 11.3 0.00 0.00 0.00 65 1014.8
20260502202042 16 317 3.2 3.2 0.00 0.00 0.00 64 1015.0
20260502201537 16 325 3.2 4.8 0.00 0.00 0.00 64 1015.0
20260502201034 16 293 3.2 3.2 0.00 0.00 0.00 63 1014.9
20260502200530 17 326 3.2 3.2 0.00 0.00 0.00 63 1015.1
20260502200028 16 308 8.0 9.7 0.00 0.00 0.00 65 1015.1
20260502195526 17 306 3.2 4.8 0.00 0.00 0.00 61 1015.3
20260502195021 17 327 3.2 4.8 0.00 0.00 0.00 61 1015.2
20260502194518 15 333 0.0 0.0 0.00 0.00 0.00 65 1015.5
20260502194014 15 0 0.0 0.0 0.00 0.00 0.00 62 1015.6
20260502193512 15 18 1.6 1.6 0.00 0.00 0.00 64 1015.8
20260502193009 15 315 3.2 9.7 0.00 0.00 0.00 68 1015.6
20260502192504 16 306 1.6 3.2 0.00 0.00 0.00 65 1015.9
20260502192002 15 320 1.6 3.2 0.00 0.00 0.00 69 1015.9
20260502191459 15 325 1.6 1.6 0.00 0.00 0.00 65 1016.0
20260502190956 13 352 0.0 0.0 0.00 0.00 0.00 72 1016.1
20260502190453 13 358 1.6 1.6 0.00 0.00 0.00 72 1016.2
20260502185950 13 343 3.2 4.8 0.00 0.00 0.00 74 1015.9
20260502185445 13 312 0.0 1.6 0.00 0.00 0.00 71 1016.0
20260502184942 13 314 3.2 4.8 0.00 0.00 0.00 70 1016.0
20260502184437 13 261 1.6 3.2 0.00 0.00 0.00 70 1015.9
20260502183934 13 302 0.0 0.0 0.00 0.00 0.00 73 1016.0
20260502183431 12 301 3.2 4.8 0.00 0.00 0.00 73 1016.1
20260502182926 12 264 0.0 0.0 0.00 0.00 0.00 75 1016.1
20260502182422 12 306 4.8 4.8 0.00 0.00 0.00 76 1016.3
20260502181918 12 313 0.0 0.0 0.00 0.00 0.00 76 1016.0